Alexandria, LA

7:39 AM CDT on April 19, 2018 (GMT -0500)
Alexandria International

Weather History for KAEX - November, 2013

Change the Weather History Date:

Thursday, November 21, 2013

  Actual Average Record
Temperature  
Mean Temperature 62 °F 56 °F  
Max Temperature 74 °F 67 °F 84 °F (1942)
Min Temperature 50 °F 44 °F 27 °F (2006)
Degree Days  
Heating Degree Days 3 10  
Month to date heating degree days 147 149  
Since 1 July heating degree days 190 222  
Growing Degree Days 12 (Base 50)    
Moisture  
Dew Point 61 °F    
Average Humidity 87    
Maximum Humidity 100    
Minimum Humidity 73    
Precipitation  
Precipitation T in 0.22 in 3.28 in (1906)
Month to date precipitation 0.25 3.31  
Year to date precipitation 48.12 47.62  
Snow  
Snow 0.00 in - 0.00 in ()
Month to date snowfall 0.0  
Since 1 July snowfall 0.0  
Since 1 September snowfall 0.0  
Snow Depth 0.00 in    
Sea Level Pressure  
Sea Level Pressure 30.11 in    
Wind  
Wind Speed 8 mph (SE)    
Max Wind Speed 16 mph    
Max Gust Speed 20 mph    
Visibility 5 miles    
Events Fog , Rain    
T = Trace of Precipitation, MM = Missing Value Source: NWS Daily Summary

Daily Weather History Graph

Daily Weather History Graph

Search for Another Location

Airport or City:

Astronomy

Nov. 21, 2013 Rise Set
Actual Time 6:43 AM CST 5:08 PM CST
Civil Twilight 6:17 AM CST 5:34 PM CST
Nautical Twilight 5:47 AM CST 6:04 PM CST
Astronomical Twilight 5:18 AM CST 6:33 PM CST
Moon 8:44 PM CST (11/21) 9:51 AM CST (11/21)
Length of Visible Light 11h 17m
Length of Day
10h 25m
Waning Gibbous, 85% of the Moon is Illuminated
Nov 21
Waning Gibbous
Nov 25
Last Quarter
Dec 2
New
Dec 9
First Quarter
Dec 17
Full

Hourly Weather History & Observations

Time (CST) Temp. Dew Point Humidity Pressure Visibility Wind Dir Wind Speed Gust Speed Precip Events Conditions
12:53 AM 51.1 °F 44.1 °F 77% 30.08 in 10.0 mi SE 3.5 mph - N/A   Clear
1:38 AM 50.0 °F 44.6 °F 82% 30.07 in 10.0 mi SSE 5.8 mph - N/A   Partly Cloudy
1:53 AM 50.0 °F 45.0 °F 83% 30.09 in 10.0 mi SE 4.6 mph - N/A   Scattered Clouds
2:00 AM 51.8 °F 46.4 °F 82% 30.07 in 10.0 mi SE 4.6 mph - N/A   Mostly Cloudy
2:53 AM 55.9 °F 52.0 °F 87% 30.08 in 9.0 mi SE 5.8 mph - N/A   Overcast
3:53 AM 57.0 °F 55.0 °F 93% 30.08 in 6.0 mi SE 8.1 mph - N/A   Overcast
4:34 AM 55.4 °F 55.4 °F 100% 30.08 in 2.5 mi SSE 3.5 mph - N/A   Overcast
4:45 AM 55.4 °F 55.4 °F 100% 30.09 in 1.2 mi SE 3.5 mph - N/A   Overcast
4:53 AM 55.9 °F 55.9 °F 100% 30.09 in 0.8 mi SE 4.6 mph - N/A   Mist
5:53 AM 57.9 °F 57.9 °F 100% 30.09 in 0.5 mi ESE 6.9 mph - N/A Fog Fog
6:53 AM 59.0 °F 59.0 °F 100% 30.11 in 0.2 mi SE 5.8 mph - N/A Fog Fog
7:53 AM 60.1 °F 60.1 °F 100% 30.12 in 0.2 mi SE 5.8 mph - N/A Fog Fog
8:49 AM 62.6 °F 62.6 °F 100% 30.12 in 0.5 mi SE 6.9 mph - N/A Fog Fog
8:53 AM 62.1 °F 62.1 °F 100% 30.13 in 0.5 mi SE 6.9 mph - N/A Fog Fog
9:10 AM 62.6 °F 62.6 °F 100% 30.13 in 1.2 mi SSE 9.2 mph - N/A   Overcast
9:46 AM 62.6 °F 62.6 °F 100% 30.13 in 2.0 mi SE 11.5 mph - N/A   Overcast
9:53 AM 63.0 °F 63.0 °F 100% 30.14 in 1.8 mi SE 15.0 mph - N/A   Overcast
10:10 AM 62.6 °F 62.6 °F 100% 30.13 in 2.0 mi SE 12.7 mph - N/A   Overcast
10:34 AM 64.4 °F 62.6 °F 94% 30.13 in 3.0 mi SE 16.1 mph - N/A   Overcast
10:53 AM 66.0 °F 63.0 °F 90% 30.14 in 4.0 mi SE 10.4 mph - N/A   Overcast
11:12 AM 66.2 °F 62.6 °F 88% 30.12 in 5.0 mi SE 12.7 mph - 0.00 in Rain Light Rain
11:53 AM 68.0 °F 64.0 °F 87% 30.12 in 6.0 mi SE 9.2 mph - 0.00 in   Overcast
12:53 PM 72.0 °F 64.9 °F 78% 30.09 in 5.0 mi SSE 12.7 mph - N/A   Haze
1:53 PM 73.0 °F 64.9 °F 76% 30.08 in 8.0 mi SSE 9.2 mph - N/A   Overcast
2:00 PM 73.4 °F 64.4 °F 73% 30.07 in 8.0 mi SSE 9.2 mph - N/A   Overcast
2:53 PM 73.0 °F 66.0 °F 79% 30.07 in 10.0 mi SSE 8.1 mph - 0.00 in   Overcast
3:53 PM 72.0 °F 66.0 °F 81% 30.09 in 7.0 mi SE 8.1 mph - N/A   Overcast
4:53 PM 71.1 °F 66.0 °F 84% 30.09 in 7.0 mi SE 8.1 mph - N/A   Overcast
5:53 PM 70.0 °F 66.0 °F 87% 30.10 in 7.0 mi East 6.9 mph - N/A   Overcast
6:44 PM 69.8 °F 66.2 °F 88% 30.10 in 7.0 mi ESE 5.8 mph - N/A   Overcast
6:53 PM 70.0 °F 66.9 °F 90% 30.12 in 7.0 mi East 4.6 mph - N/A   Overcast
7:53 PM 69.1 °F 66.0 °F 90% 30.13 in 7.0 mi ESE 9.2 mph - N/A   Overcast
8:53 PM 69.1 °F 66.0 °F 90% 30.13 in 6.0 mi SE 10.4 mph - N/A   Overcast
9:14 PM 69.8 °F 66.2 °F 88% 30.11 in 5.0 mi SE 10.4 mph - N/A   Overcast
9:53 PM 69.1 °F 66.0 °F 90% 30.13 in 5.0 mi SE 9.2 mph - N/A   Overcast
10:53 PM 68.0 °F 66.0 °F 93% 30.15 in 4.0 mi SE 9.2 mph - N/A   Overcast
11:23 PM 68.0 °F 66.2 °F 94% 30.14 in 3.0 mi SSE 9.2 mph - N/A   Overcast
11:48 PM 66.2 °F 66.2 °F 100% 30.14 in 2.5 mi SE 8.1 mph - N/A   Overcast
11:53 PM 66.9 °F 66.0 °F 97% 30.14 in 2.0 mi SE 9.2 mph - N/A   Overcast